Weather in Pereval'noe

Russia / Voronezh Oblast     50°32′30″N   39°30′38″E
temp.,
°C
wind,
m/s
gust,
m/s
humid.,
%
clouds,
%
prec.,
mm/h
press.,
hPa
HPBL,
m
7 march, sun
sun700:00−5nw58700 0.0 1020746
03:00−5w38740 0.0 1020596
06:00−5wsw368341 0.0 1020189
09:00−4wsw697831 0.0 1018875
12:00−1wsw8115670 0.0 10171259
15:000sw9144685 0.0 10131221
18:00−1sw91654100 0.0 10101092
21:00−1wsw10177699 0.0 10081158
8 march, mon
mon800:00−1wsw91691100 0.3 1007986
03:00−1wsw71390100 0.4 1007866
06:00−1wsw71296100 0.9 1007721
09:00−1wsw8138499 1.1 1006852
12:000wsw81286100 0.2 10061015
15:00+1w71084100 0.7 1007952
18:00−1wnw4107594 0.3 1007471
21:00−3nw398250 0.3 1009556
9 march, tue
tue900:00−4w378114 0.0 1010415
03:00−4wnw378456 0.1 1011669
06:00−5wnw478775 0.0 1013489
09:00−5nw568183 0.1 1014659
12:00−4nw5667100 0.1 10151013
15:00−4nw5763100 0.2 10161198
18:00−5nw5670100 0.1 1017948
21:00−6nnw577297 0.1 1019899
10 march, wed
wed1000:00−8nnw567687 0.0 1020746
03:00−9nw467989 0.0 1022695
06:00−10nw468193 0.0 1023567
09:00−10nnw467365 0.0 1025563
12:00−7nnw45560 0.0 1026860
15:00−6nnw45487 0.0 1026986
18:00−7n345299 0.0 1026790
21:00−8n335694 0.0 1027537
11 march, thu
thu1100:00−9ene336893 0.0 1028463
03:00−11ene346966 0.0 1029293
06:00−12ene23661 0.0 1029243
09:00−11ese235410 0.0 1031380
12:00−8se224238 0.0 1031638
15:00−5se223834 0.0 1030837
18:00−5sse23420 0.0 1029636
21:00−6sse47470 0.0 1030369